DW7304 Weather Reports


Display with metric or nautical units.
time (UTC)temp
F
wind
direction
speed
MPH
gust
MPH
rain 1hr
in
rain 24hr
in
rain mn
in
humidity
%
barometer
mb
20260507140003 61 208 8.0 17.0 0.00 0.33 0.00 55 1008.5
20260507135403 61 201 6.0 12.0 0.00 0.33 0.00 57 1008.5
20260507134503 62 212 8.0 15.0 0.00 0.33 0.00 56 1008.7
20260507133603 62 223 6.0 14.0 0.00 0.33 0.00 57 1008.6
20260507132918 62 210 6.0 11.0 0.00 0.33 0.00 56 1008.5
20260507131803 61 231 10.0 18.0 0.00 0.33 0.00 56 1008.9
20260507131116 62 208 7.0 18.0 0.00 0.33 0.00 57 1008.8
20260507130003 62 225 6.0 14.0 0.00 0.33 0.00 55 1008.8
20260507125403 62 201 6.0 15.0 0.00 0.33 0.00 57 1008.9
20260507124716 62 223 7.0 15.0 0.00 0.35 0.00 56 1008.9
20260507123604 62 233 9.0 16.0 0.00 0.37 0.00 59 1009.0
20260507122705 61 239 6.0 15.0 0.00 0.39 0.00 60 1008.7
20260507122016 62 219 6.0 15.0 0.00 0.39 0.00 60 1008.8
20260507120903 61 209 7.0 12.0 0.00 0.39 0.00 59 1008.9
20260507120004 61 223 6.0 15.0 0.00 0.41 0.00 62 1008.8
20260507115403 61 229 7.0 15.0 0.00 0.43 0.00 60 1008.8
20260507114503 61 210 6.0 12.0 0.00 0.43 0.00 63 1008.8
20260507113603 61 214 7.0 15.0 0.00 0.43 0.00 67 1008.9
20260507112703 60 186 7.0 14.0 0.00 0.45 0.00 67 1009.0
20260507111803 61 200 6.0 12.0 0.00 0.45 0.00 67 1009.1
20260507110903 60 220 8.0 15.0 0.00 0.45 0.00 65 1009.0
20260507110003 61 234 7.0 14.0 0.00 0.45 0.00 67 1009.1
20260507105403 60 218 7.0 13.0 0.00 0.45 0.00 67 1009.1
20260507104718 60 203 6.0 14.0 0.00 0.45 0.00 70 1009.0
20260507103603 60 193 7.0 13.0 0.00 0.45 0.00 65 1009.1
20260507102703 60 209 8.0 13.0 0.00 0.45 0.00 71 1009.2
20260507101803 60 211 7.0 13.0 0.00 0.47 0.00 71 1009.2
20260507101117 60 214 7.0 13.0 0.00 0.47 0.00 71 1009.1
20260507100003 58 206 8.0 13.0 0.00 0.51 0.00 73 1009.1
20260507095403 58 211 8.0 15.0 0.00 0.53 0.00 71 1009.1
20260507094503 58 214 8.0 16.0 0.00 0.53 0.00 76 1009.1
20260507093604 58 215 7.0 17.0 0.00 0.53 0.00 74 1009.1
20260507092703 57 206 8.0 14.0 0.00 0.53 0.00 76 1009.1
20260507091803 58 203 8.0 16.0 0.00 0.53 0.00 76 1009.1
20260507090903 56 215 5.0 10.0 0.00 0.53 0.00 78 1009.1
20260507090004 56 228 6.0 11.0 0.00 0.53 0.00 76 1009.1
20260507085403 56 222 7.0 12.0 0.00 0.53 0.00 77 1009.0
20260507084503 57 208 7.0 11.0 0.00 0.55 0.00 74 1008.9
20260507083603 58 217 6.0 11.0 0.00 0.57 0.00 77 1009.0
20260507082703 56 217 7.0 15.0 0.00 0.59 0.00 75 1008.8
20260507081803 57 222 7.0 11.0 0.00 0.61 0.00 74 1008.7
20260507080903 57 227 6.0 11.0 0.00 0.63 0.00 77 1008.7
20260507080218 57 209 5.0 11.0 0.00 0.65 0.00 75 1008.7
20260507075617 57 212 6.0 11.0 0.00 0.67 0.00 75 1008.6
20260507074503 56 214 7.0 14.0 0.00 0.69 0.00 77 1008.5
20260507073818 56 236 5.0 13.0 0.00 0.69 0.00 80 1008.6
20260507072703 56 246 3.0 6.0 0.00 0.71 0.00 83 1008.4
20260507071803 56 243 3.0 5.0 0.00 0.74 0.00 82 1008.5
20260507070903 55 242 4.0 9.0 0.00 0.74 0.00 83 1008.4
20260507070004 55 217 7.0 11.0 0.00 0.81 0.00 81 1008.3
20260507065403 54 203 6.0 11.0 0.00 0.88 0.00 81 1008.3
20260507064503 54 148 5.0 12.0 0.00 0.92 0.00 82 1008.1
20260507063818 55 153 4.0 12.0 0.00 0.96 0.00 83 1008.1
20260507062703 54 155 5.0 11.0 0.00 1.02 0.00 82 1008.1
20260507061803 54 157 4.0 7.0 0.00 1.08 0.00 84 1008.0
20260507060903 53 146 4.0 8.0 0.00 1.16 0.00 85 1008.0
20260507060004 53 149 5.0 8.0 0.00 1.18 0.00 85 1008.1
20260507055403 53 151 3.0 7.0 0.00 1.18 0.00 85 1008.0
20260507054503 53 182 2.0 7.0 0.00 1.18 0.00 86 1008.0
20260507053603 52 186 2.0 7.0 0.00 1.18 0.00 87 1008.0
20260507052703 51 123 2.0 4.0 0.00 1.18 0.00 88 1007.8
20260507051803 51 97 2.0 5.0 0.00 1.18 0.00 88 1007.5
20260507050903 50 145 4.0 9.0 0.00 1.18 0.00 88 1007.5
20260507050217 50 143 4.0 9.0 0.00 1.18 0.00 88 1007.4
20260507045618 50 133 3.0 6.0 0.00 1.18 0.00 88 1007.3
20260507044503 50 170 1.0 4.0 0.00 1.18 0.00 88 1007.5
20260507043603 50 154 1.0 4.0 0.00 1.18 0.00 88 1007.3
20260507042916 50 144 2.0 6.0 0.00 1.18 0.00 88 1007.4
20260507041803 50 135 5.0 8.0 0.00 1.18 0.00 88 1007.1
20260507040903 50 139 3.0 6.0 0.00 1.18 0.00 87 1007.3
20260507040003 51 136 3.0 8.0 0.00 1.18 0.00 87 1007.3
20260507035403 51 140 3.0 6.0 0.00 1.18 0.00 87 1007.2
20260507034503 51 149 3.0 7.0 0.00 1.18 0.00 87 1007.3
20260507033816 51 157 3.0 9.0 0.00 1.18 0.00 87 1007.4
20260507032703 51 147 2.0 6.0 0.00 1.18 0.00 86 1007.3
20260507032017 51 168 3.0 8.0 0.00 1.18 0.00 86 1007.2
20260507031116 51 167 5.0 9.0 0.00 1.18 0.00 87 1007.3
20260507030003 51 176 5.0 12.0 0.00 1.18 0.00 86 1007.1
20260507025403 51 168 5.0 10.0 0.00 1.18 0.00 87 1007.2
20260507024503 51 163 5.0 10.0 0.00 1.18 0.00 86 1007.1
20260507023603 51 183 6.0 12.0 0.00 1.18 0.00 86 1007.1
20260507022703 51 176 6.0 14.0 0.00 1.18 0.00 86 1007.2
20260507021803 52 174 6.0 12.0 0.00 1.20 0.00 86 1007.1
20260507020903 52 193 6.0 13.0 0.00 1.20 0.00 87 1007.1
20260507020217 52 213 5.0 13.0 0.00 1.20 0.00 87 1007.1
20260507015403 52 194 5.0 12.0 0.00 1.20 0.00 87 1007.1
20260507014503 52 191 5.0 17.0 0.00 1.20 0.00 87 1007.1
20260507013603 52 179 6.0 12.0 0.00 1.20 0.00 87 1007.1
20260507012703 52 183 6.0 13.0 0.00 1.20 0.00 87 1007.1
20260507011803 52 184 8.0 17.0 0.00 1.20 0.00 87 1007.1
20260507010903 52 173 8.0 16.0 0.00 1.22 0.00 87 1007.0
20260507010003 52 182 7.0 16.0 0.00 1.24 0.00 87 1006.8
20260507005403 52 187 8.0 15.0 0.00 1.28 0.00 87 1007.0
20260507004503 52 189 8.0 18.0 0.00 1.39 0.00 87 1006.9
20260507003603 52 184 8.0 18.0 0.00 1.49 0.00 87 1007.0
20260507002917 52 182 8.0 15.0 0.00 1.51 0.00 87 1007.2
20260507002018 52 167 8.0 16.0 0.00 1.51 0.00 87 1007.1
20260507000903 52 187 8.0 18.0 0.00 1.53 0.00 87 1007.2
20260507000004 52 176 8.0 14.0 0.00 1.53 0.00 87 1007.2
20260506235404 52 182 9.0 18.0 0.00 1.55 0.00 88 1007.3
20260506234503 52 178 9.0 19.0 0.00 1.65 0.00 88 1007.2
20260506233603 52 176 10.0 17.0 0.00 1.69 0.00 88 1007.3
20260506232703 52 178 9.0 18.0 0.00 1.71 0.00 89 1007.4
20260506231803 52 188 7.0 16.0 0.00 1.71 0.00 89 1007.4
20260506230903 52 191 11.0 20.0 0.00 1.71 0.00 89 1007.4
20260506230003 52 186 10.0 19.0 0.00 1.71 0.00 89 1007.3
20260506225403 52 175 10.0 19.0 0.00 1.71 0.00 89 1007.3
20260506224503 52 198 9.0 19.0 0.00 1.71 0.00 89 1007.3
20260506223603 52 183 11.0 19.0 0.00 1.71 0.00 89 1007.4
20260506222703 52 199 11.0 19.0 0.00 1.71 0.00 89 1007.1
20260506221803 52 192 10.0 20.0 0.00 1.71 0.00 90 1007.3
20260506220903 52 189 11.0 18.0 0.00 1.71 0.00 90 1007.2
20260506220003 52 204 10.0 18.0 0.00 1.71 0.00 90 1007.3
20260506215403 52 212 10.0 18.0 0.00 1.71 1.71 90 1007.2
20260506214503 51 212 8.0 15.0 0.00 1.71 1.71 90 1007.3
20260506213816 51 208 8.0 14.0 0.00 1.71 1.71 90 1007.3
20260506212703 52 210 10.0 17.0 0.00 1.71 1.71 89 1007.2
20260506211803 52 195 10.0 21.0 0.00 1.71 1.71 89 1007.3
20260506210903 52 193 9.0 17.0 0.00 1.71 1.71 89 1007.3
20260506210003 52 195 9.0 17.0 0.00 1.71 1.71 89 1007.3
20260506205403 52 188 8.0 17.0 0.00 1.71 1.71 88 1007.5
20260506204503 52 183 8.0 19.0 0.00 1.71 1.71 88 1007.1
20260506203603 51 197 7.0 13.0 0.00 1.71 1.71 88 1007.2
20260506202703 52 189 9.0 17.0 0.00 1.71 1.71 88 1007.4
20260506201803 52 192 9.0 15.0 0.00 1.71 1.71 88 1007.1
20260506200903 52 193 9.0 17.0 0.00 1.71 1.71 88 1007.1
20260506200003 52 179 9.0 18.0 0.00 1.71 1.71 88 1007.1
20260506195403 52 168 9.0 17.0 0.00 1.71 1.71 88 1007.0
20260506194503 52 173 9.0 17.0 0.00 1.71 1.71 88 1006.8
20260506193603 52 194 10.0 20.0 0.02 1.71 1.71 89 1006.7
20260506192917 52 184 10.0 20.0 0.02 1.71 1.71 89 1006.7
20260506191804 52 177 10.0 21.0 0.10 1.71 1.71 90 1006.3
20260506190903 52 172 8.0 17.0 0.12 1.71 1.71 90 1006.3
20260506190004 52 179 10.0 22.0 0.12 1.71 1.71 90 1006.0
20260506185403 52 187 9.0 22.0 0.12 1.71 1.71 90 1005.9
20260506184503 52 207 4.0 12.0 0.12 1.71 1.71 90 1005.7
20260506183603 52 247 3.0 12.0 0.10 1.71 1.69 90 1005.7
20260506182703 52 243 5.0 12.0 0.10 1.71 1.69 90 1006.1
20260506182018 52 227 5.0 12.0 0.04 1.67 1.63 90 1005.9
20260506180903 52 208 9.0 15.0 0.10 1.63 1.59 90 1006.1
20260506180218 52 213 8.0 16.0 0.12 1.63 1.59 90 1006.0
20260506175618 52 221 9.0 17.0 0.12 1.63 1.59 90 1006.2
20260506174503 52 211 9.0 19.0 0.12 1.63 1.59 90 1005.9
20260506173603 52 221 12.0 23.0 0.12 1.63 1.59 89 1006.1
20260506172703 53 219 10.0 19.0 0.12 1.63 1.59 89 1006.1
20260506171803 53 202 8.0 15.0 0.08 1.61 1.57 89 1005.9
20260506170903 53 174 8.0 16.0 0.02 1.55 1.49 88 1005.5
20260506170218 54 174 8.0 17.0 0.00 1.53 1.47 88 1005.5
20260506165403 53 160 7.0 15.0 0.00 1.55 1.47 88 1005.5
20260506164503 53 166 7.0 13.0 0.00 1.59 1.47 89 1005.4
20260506163603 53 165 6.0 17.0 0.00 1.61 1.47 89 1005.6
20260506162703 53 180 7.0 16.0 0.00 1.63 1.47 89 1005.8
20260506161803 53 182 8.0 15.0 0.00 1.67 1.47 89 1005.8
20260506160903 53 196 5.0 11.0 0.00 1.69 1.47 89 1005.8
20260506160003 53 186 6.0 14.0 0.00 1.73 1.47 89 1005.8
20260506155617 53 182 7.0 14.0 0.00 1.76 1.47 89 1005.8
20260506154503 53 187 9.0 19.0 0.02 1.78 1.47 89 1005.9
20260506153603 53 185 8.0 21.0 0.02 1.80 1.47 90 1005.9
20260506152703 53 177 8.0 19.0 0.02 1.80 1.47 90 1006.2
20260506151803 53 181 10.0 15.0 0.04 1.81 1.47 90 1006.2
20260506150903 53 199 9.0 19.0 0.06 1.81 1.47 90 1006.2
20260506150003 53 178 9.0 19.0 0.08 1.81 1.47 90 1006.4
20260506145403 53 192 9.0 21.0 0.08 1.81 1.47 90 1006.3
20260506144503 52 187 8.0 15.0 0.06 1.81 1.45 90 1006.6
20260506143603 52 211 8.0 15.0 0.06 1.81 1.45 90 1006.4
20260506142703 52 219 8.0 15.0 0.06 1.81 1.45 90 1006.6
20260506141804 52 195 7.0 13.0 0.04 1.80 1.43 90 1006.6
20260506140903 52 215 6.0 13.0 0.02 1.80 1.41 90 1006.7